Tracking 31027 objects as of 19-Jul-2025
HD Live streaming from Space Station
objects crossing your sky now

ST5-B

Track ST5-B now!
10-day predictions
ST5-B is classified as:


NORAD ID: 28981
Int'l Code: 2006-008B
Perigee: 175.6 km
Apogee: 272.3 km
Inclination: 105.3 °
Period: 88.8 minutes
Semi major axis: 6594 km
RCS: 0.3032 m2 (medium)
Launch date: March 22, 2006
Source: United States (US)
Launch site: Pegasus launched from Western Range Air Space (WRAS)
Your satellite tracking list
IRIDIUM 33 DEB
Track 1 satellite(s)




NASA's NSSDC Master Catalog

Two Line Element Set (TLE):
1 28981U 06008B   25199.66990672  .02366628  78862-5  62845-3 0  9990
2 28981 105.3481 286.0467 0073300 303.8659  55.5635 16.20995467842138
Source of the keplerian elements: AFSPC